#timestamp,LO_Frequency,Hit,StdDev 
1553500815.6,286047000.2,N
1553500835.4,286047002.7,N
1553500855.2,286047001.9,N
1553500875.1,286047000.7,N
1553500876.0,286047000.7,N
1553500895.8,286047001.2,N
1553500915.7,286046999.2,N
1553500935.5,286046999.2,N
1553500955.3,286046998.3,N
1553500975.2,286046998.4,N
1553500995.9,286046998.1,N
1553501015.7,286047000.5,N
1553501035.6,286047000.1,N
1553501055.4,286047000.5,N
1553501075.2,286046996.5,N
1553501095.1,286046998.5,N
1553501096.0,286046998.5,N
1553501115.8,286046999.2,N
1553501135.7,286047001.2,N
1553501155.5,286047001.0,N
1553501175.3,286047000.9,N
1553501195.2,286047001.2,N
1553501215.0,286047001.2,N
1553501215.9,286047001.2,N
1553501235.8,286046999.8,N
1553501255.6,286046998.1,N
1553501275.4,286047001.1,N
1553501295.3,286046996.9,N
1553501315.1,286046996.5,N
1553501335.8,286046997.9,N
1553501355.7,286046997.4,N
1553501375.5,286046996.5,N
1553501395.4,286046999.0,N
1553501415.4,286046996.8,N
1553501435.3,286046997.4,N
1553501455.1,286046996.5,N
1553501475.9,286046996.5,N
1553501495.7,286046999.3,N
1553501515.5,286046998.6,N
1553501535.4,286046998.3,N
1553501555.2,286046998.6,N
1553501575.0,286047000.6,N
1553501576.0,286047000.6,N
1553501595.8,286047000.5,N
1553501615.6,286047000.7,N
1553501635.5,286046998.2,N
1553501655.3,286046998.6,N
1553501675.2,286046999.5,N
1553501695.0,286046998.5,N
1553501695.9,286046998.5,N
1553501715.8,286046998.7,N
1553501765.6,286046998.4,E
1553501775.6,286046998.6,N
1553501795.4,286047000.2,P
1553501815.2,286047000.0,N
1553501835.1,286047000.7,N
1553501836.0,286047000.7,N
1553501855.8,286047000.8,N
1553501875.6,286047001.1,N
1553501895.5,286047001.2,N
1553501915.3,286046998.8,N
1553501935.2,286046997.1,Y
1553501955.9,286046998.7,P
1553501975.7,286046999.1,N
1553501995.6,286047000.8,N
1553502015.4,286047000.9,N
1553502035.2,286047002.8,Y
1553502055.1,286046999.9,P
1553502056.0,286046999.9,P
1553502075.8,286047000.0,N
1553502095.7,286046998.5,Y
1553502115.5,286047001.1,P
1553502135.3,286047000.7,N
1553502155.2,286047000.3,N
1553502175.0,286047000.1,N
1553502175.9,286047000.1,N
1553502195.8,286046999.7,N
1553502215.6,286047000.6,N
1553502235.4,286047000.7,N
1553502255.3,286046998.5,Y
1553502275.1,286047001.1,P
1553502295.9,286047000.6,N
1553502315.7,286047001.0,P
1553502335.5,286047000.2,N
1553502355.4,286047002.4,Y
1553502375.2,286047002.1,P
1553502395.0,286047003.3,P
1553502396.0,286047003.3,P
1553502415.8,286047003.7,Y
1553502435.6,286046999.1,P
1553502455.5,286046997.0,N
1553502475.3,286046996.8,N
1553502495.1,286046996.5,N
1553502515.9,286046999.6,N
1553502535.7,286046999.6,N
1553502555.6,286046999.1,N
1553502575.4,286046999.6,N
1553502595.2,286046998.0,N
1553502615.1,286046997.5,N
1553502616.0,286046997.5,N
1553502635.8,286046999.5,N
1553502655.7,286046997.1,N
1553502675.5,286046997.7,N
1553502695.3,286046997.0,N
1553502715.2,286046999.2,N
1553502735.0,286046997.7,N
1553502735.9,286046997.7,N
1553502755.7,286046997.7,N
1553502775.6,286046995.4,Y
1553502795.4,286046998.9,P
1553502815.3,286046998.3,P
1553502835.1,286046998.2,P
1553502855.9,286046998.7,Y
1553502875.7,286047004.4,P
1553502895.5,286047001.6,N
1553502915.4,286046999.9,N
1553502935.2,286046999.7,N
1553502955.0,286047000.8,N
1553502955.9,286047000.8,N
1553502975.8,286047000.9,N
1553502995.6,286047001.3,N
1553503015.4,286047004.0,N
1553503035.3,286047003.7,N
1553503055.1,286047003.8,N
1553503075.9,286047002.2,N
1553503095.7,286047001.7,N
1553503115.5,286047001.9,N
1553503135.4,286047003.8,N
1553503155.4,286047004.1,N
1553503175.2,286047003.1,N
1553503195.1,286047005.5,Y
1553503196.0,286047005.5,P
1553503215.8,286047004.1,N
1553503235.7,286047004.0,N
1553503255.5,286047001.5,N
1553503275.3,286047004.4,N
1553503295.2,286047001.3,N
1553503315.0,286047006.0,Y
1553503315.9,286047006.0,P
1553503335.8,286047003.8,N
1553503355.6,286047003.7,P
1553503375.4,286047004.1,Y
1553503395.3,286046998.7,P
1553503415.1,286046998.5,N
1553503435.8,286046999.2,N
1553503455.7,286046999.2,N
1553503475.5,286046997.9,N
1553503495.4,286046995.2,N
1553503515.2,286046993.9,N
1553503535.0,286046996.4,N
1553503535.9,286046996.4,N
1553503555.8,286046993.7,N
1553503575.6,286046996.1,N
1553503595.4,286046994.0,N
1553503615.3,286046992.0,N
1553503635.1,286046992.5,N
1553503655.9,286046990.1,Y
1553503675.7,286046996.0,P
1553503695.5,286046995.2,P
1553503715.4,286046995.9,P
1553503735.2,286046993.6,Y
1553503755.0,286046999.4,P
1553503755.9,286046999.4,N
1553503775.8,286046998.5,N
1553503795.6,286046998.9,N
1553503815.5,286046998.4,N
1553503835.3,286046998.9,N
1553503855.1,286046998.5,N
1553503875.9,286046997.3,N
1553503895.7,286046999.6,N
1553503915.5,286046996.8,Y
1553503935.4,286046999.0,P
1553503955.2,286046999.4,N
1553503975.1,286047000.7,N
1553503976.0,286047000.7,N
1553503995.8,286047000.8,N
1553504015.6,286047002.6,N
1553504035.5,286047002.8,N
1553504055.3,286047002.3,N
1553504075.2,286047002.3,N
1553504095.9,286047003.2,N
1553504115.7,286047003.2,N
1553504135.6,286047003.5,N
1553504155.4,286047005.2,Y
1553504175.2,286047003.7,P
1553504195.1,286047001.9,N
1553504196.0,286047001.9,N
1553504215.8,286047002.2,N
1553504235.7,286047001.6,N
1553504255.5,286047002.0,N
1553504275.3,286047002.7,Y
1553504295.2,286046999.2,P
1553504315.0,286046996.5,N
1553504315.9,286046996.5,N
1553504335.7,286046998.7,N
1553504355.6,286046999.0,N
1553504375.4,286046997.1,N
1553504395.3,286046997.1,N
